FW2728 Weather Reports


time (UTC)temp
C
wind
direction
speed
KPH
gust
KPH
rain 1hr
cm
rain 24hr
cm
rain mn
cm
humidity
%
barometer
mb
20260906233017 37 84 4.8 12.9 0.00 0.00 0.00 37 1010.7
20260906232017 37 83 1.6 6.4 0.00 0.00 0.00 35 1010.8
20260906231017 37 116 1.6 8.0 0.00 0.00 0.00 36 1010.8
20260906230017 37 102 6.4 12.9 0.00 0.00 0.00 35 1010.7
20260906225017 37 91 6.4 14.5 0.00 0.00 0.00 36 1010.7
20260906224017 38 80 4.8 11.3 0.00 0.00 0.00 36 1010.8
20260906223017 37 81 4.8 14.5 0.00 0.00 0.00 36 1010.8
20260906222018 38 104 4.8 11.3 0.00 0.00 0.00 36 1011.0
20260906221017 37 107 4.8 14.5 0.00 0.00 0.00 37 1011.0
20260906220038 38 82 6.4 12.9 0.00 0.00 0.00 35 1011.0
20260906215015 38 103 4.8 12.9 0.00 0.00 0.00 36 1011.0
20260906214015 38 140 3.2 9.7 0.00 0.00 0.00 35 1011.1
20260906213036 38 90 6.4 12.9 0.00 0.00 0.00 36 1011.2
20260906212015 38 93 4.8 11.3 0.00 0.00 0.00 36 1011.4
20260906211016 38 93 4.8 14.5 0.00 0.00 0.00 36 1011.5
20260906210016 38 55 4.8 11.3 0.00 0.00 0.00 36 1011.6
20260906205016 38 189 1.6 8.0 0.00 0.00 0.00 37 1011.7
20260906204036 38 87 4.8 9.7 0.00 0.00 0.00 37 1011.8
20260906203037 38 87 4.8 11.3 0.00 0.00 0.00 37 1011.9
20260906202017 37 149 3.2 11.3 0.00 0.00 0.00 38 1012.0
20260906201017 37 160 4.8 11.3 0.00 0.00 0.00 38 1012.1
20260906200037 37 88 4.8 11.3 0.00 0.00 0.00 38 1012.2
20260906195017 37 102 4.8 12.9 0.00 0.00 0.00 38 1012.3
20260906194037 37 85 4.8 11.3 0.00 0.00 0.00 40 1012.4
20260906193017 37 82 6.4 12.9 0.00 0.00 0.00 41 1012.6
20260906192038 37 111 3.2 9.7 0.00 0.00 0.00 40 1012.7
20260906191018 37 88 6.4 12.9 0.00 0.00 0.00 41 1012.8
20260906190018 37 142 4.8 14.5 0.00 0.00 0.00 41 1012.9
20260906185018 37 126 4.8 12.9 0.00 0.00 0.00 41 1013.1
20260906184018 36 77 4.8 11.3 0.00 0.00 0.00 43 1013.0
20260906183015 36 125 6.4 12.9 0.00 0.00 0.00 43 1013.1
20260906182036 36 89 3.2 9.7 0.00 0.00 0.00 43 1013.3
20260906181035 36 79 3.2 12.9 0.00 0.00 0.00 44 1013.4
20260906180016 36 120 4.8 9.7 0.00 0.00 0.00 46 1013.6
20260906175016 36 77 3.2 14.5 0.00 0.00 0.00 45 1013.7
20260906174016 36 138 4.8 11.3 0.00 0.00 0.00 45 1014.0
20260906173016 35 144 3.2 9.7 0.00 0.00 0.00 46 1014.2
20260906172017 35 66 4.8 11.3 0.00 0.00 0.00 46 1014.3
20260906171016 35 69 4.8 11.3 0.00 0.00 0.00 47 1014.5
20260906170017 35 89 4.8 14.5 0.00 0.00 0.00 49 1014.6
20260906165017 35 89 4.8 12.9 0.00 0.00 0.00 49 1014.7
20260906164017 35 118 3.2 6.4 0.00 0.00 0.00 48 1014.7
20260906163017 34 76 3.2 8.0 0.00 0.00 0.00 50 1014.7
20260906162017 34 122 4.8 9.7 0.00 0.00 0.00 52 1014.6
20260906161018 33 64 3.2 6.4 0.00 0.00 0.00 54 1014.6
20260906160018 33 110 3.2 6.4 0.00 0.00 0.00 56 1014.7
20260906155017 32 88 3.2 12.9 0.00 0.00 0.00 57 1014.8
20260906154018 32 110 3.2 8.0 0.00 0.00 0.00 59 1014.7
20260906153035 32 80 3.2 8.0 0.00 0.00 0.00 59 1014.7
20260906152038 32 84 1.6 4.8 0.00 0.00 0.00 60 1014.6
20260906151015 31 94 1.6 6.4 0.00 0.00 0.00 61 1014.6
20260906150015 31 70 1.6 6.4 0.00 0.00 0.00 63 1014.5
20260906145016 31 102 1.6 6.4 0.00 0.00 0.00 64 1014.4
20260906144016 31 120 1.6 4.8 0.00 0.00 0.00 64 1014.4
20260906143036 30 114 1.6 8.0 0.00 0.00 0.00 65 1014.4
20260906142037 30 115 1.6 4.8 0.00 0.00 0.00 67 1014.4
20260906141016 30 80 1.6 6.4 0.00 0.00 0.00 68 1014.4
20260906140016 29 81 1.6 4.8 0.00 0.00 0.00 70 1014.3
20260906135037 28 89 1.6 6.4 0.00 0.00 0.00 70 1014.2
20260906134037 28 122 0.0 3.2 0.00 0.00 0.00 72 1014.3
20260906133017 28 115 1.6 4.8 0.00 0.00 0.00 73 1014.3
20260906132017 28 92 1.6 3.2 0.00 0.00 0.00 73 1014.3
20260906131017 27 124 0.0 3.2 0.00 0.00 0.00 76 1014.3
20260906130017 26 110 0.0 3.2 0.00 0.00 0.00 79 1014.2
20260906125018 26 101 1.6 3.2 0.00 0.00 0.00 82 1014.1
20260906124018 25 88 1.6 3.2 0.00 0.00 0.00 83 1014.2
20260906123018 25 126 0.0 3.2 0.00 0.00 0.00 84 1014.1
20260906122018 25 122 1.6 4.8 0.00 0.00 0.00 84 1014.0
20260906121016 25 147 0.0 3.2 0.00 0.00 0.00 85 1013.9
20260906120015 25 67 0.0 1.6 0.00 0.00 0.00 84 1013.8
20260906115015 25 71 0.0 1.6 0.00 0.00 0.00 85 1013.7
20260906114036 25 33 0.0 1.6 0.00 0.00 0.00 84 1013.5
20260906113016 25 0.0 0.0 0.00 0.00 0.00 84 1013.6
20260906112016 25 0.0 0.0 0.00 0.00 0.00 83 1013.4
20260906111016 25 0.0 0.0 0.00 0.00 0.00 83 1013.4
20260906110017 25 50 0.0 1.6 0.00 0.00 0.00 82 1013.3
20260906105017 25 74 0.0 1.6 0.00 0.00 0.00 82 1013.3
20260906104017 25 49 0.0 1.6 0.00 0.00 0.00 82 1013.3
20260906103017 25 56 0.0 1.6 0.00 0.00 0.00 82 1013.3
20260906102017 25 38 0.0 0.0 0.00 0.00 0.00 81 1013.2
20260906101017 26 0.0 0.0 0.00 0.00 0.00 81 1013.0
20260906100017 26 47 0.0 1.6 0.00 0.00 0.00 81 1012.9
20260906095038 26 0.0 0.0 0.00 0.00 0.00 80 1012.7
20260906094018 26 249 0.0 1.6 0.00 0.00 0.00 79 1012.7
20260906093018 26 0.0 0.0 0.00 0.00 0.00 78 1012.7
20260906092038 26 332 0.0 0.0 0.00 0.00 0.00 78 1012.7
20260906091016 26 74 0.0 1.6 0.00 0.00 0.00 77 1012.6
20260906090016 26 73 0.0 1.6 0.00 0.00 0.00 76 1012.5
20260906085016 27 67 0.0 0.0 0.00 0.00 0.00 75 1012.4
20260906084116 27 246 1.6 4.8 0.00 0.00 0.00 75 1012.5
20260906083016 27 0.0 0.0 0.00 0.00 0.00 74 1012.6
20260906082017 27 165 0.0 1.6 0.00 0.00 0.00 74 1012.6
20260906081016 27 106 0.0 1.6 0.00 0.00 0.00 73 1012.5
20260906080017 27 194 0.0 4.8 0.00 0.00 0.00 73 1012.6
20260906075017 27 189 1.6 6.4 0.00 0.00 0.00 72 1012.7
20260906074017 28 200 1.6 4.8 0.00 0.00 0.00 72 1012.7
20260906073017 28 217 3.2 8.0 0.00 0.00 0.00 72 1012.7
20260906072018 28 181 3.2 8.0 0.00 0.00 0.00 71 1012.7
20260906071017 28 178 1.6 4.8 0.00 0.00 0.00 71 1012.9
20260906070018 28 191 1.6 6.4 0.00 0.00 0.00 71 1012.9
20260906065018 28 196 1.6 6.4 0.00 0.00 0.00 70 1012.9
20260906064038 28 192 1.6 9.7 0.00 0.00 0.00 70 1013.0
20260906063016 28 183 3.2 8.0 0.00 0.00 0.00 70 1013.1
20260906062036 28 193 1.6 8.0 0.00 0.00 0.00 70 1013.2
20260906061015 28 203 0.0 3.2 0.00 0.00 0.00 70 1013.2
20260906060016 28 158 0.0 3.2 0.00 0.00 0.00 69 1013.1
20260906055016 29 191 0.0 3.2 0.00 0.00 0.00 69 1013.1
20260906054036 29 192 1.6 6.4 0.00 0.00 0.00 69 1013.0
20260906053016 29 190 0.0 4.8 0.00 0.00 0.00 68 1013.0
20260906052016 29 120 0.0 4.8 0.00 0.00 0.00 68 1013.0
20260906051017 30 218 1.6 8.0 0.00 0.00 0.00 67 1013.0
20260906050037 30 160 0.0 3.2 0.00 0.00 0.00 67 1013.0
20260906045038 30 202 3.2 8.0 0.00 0.00 0.00 67 1013.1
20260906044018 30 152 1.6 4.8 0.00 0.00 0.00 66 1012.9
20260906043038 30 183 1.6 6.4 0.00 0.00 0.00 65 1012.8
20260906042018 30 141 1.6 4.8 0.00 0.00 0.00 65 1012.8
20260906041016 30 198 3.2 9.7 0.00 0.00 0.00 64 1012.7
20260906040016 30 128 1.6 6.4 0.00 0.00 0.00 63 1012.8
20260906035116 30 127 1.6 6.4 0.00 0.00 0.00 63 1012.7
20260906034015 30 122 1.6 8.0 0.00 0.00 0.00 62 1012.9
20260906033016 31 153 1.6 8.0 0.00 0.00 0.00 62 1012.9
20260906032016 31 186 3.2 8.0 0.00 0.00 0.00 61 1012.9
20260906031017 31 142 3.2 8.0 0.00 0.00 0.00 61 1012.9
20260906030016 31 133 3.2 14.5 0.00 0.00 0.00 60 1012.8
20260906025017 31 134 3.2 11.3 0.00 0.00 0.00 59 1012.8
20260906024017 31 117 4.8 9.7 0.00 0.00 0.00 59 1012.7
20260906023057 31 123 3.2 8.0 0.00 0.00 0.00 59 1012.5
20260906022017 31 127 3.2 9.7 0.00 0.00 0.00 59 1012.3
20260906021017 31 158 1.6 6.4 0.00 0.00 0.00 58 1012.1
20260906020018 31 142 4.8 9.7 0.00 0.00 0.00 58 1012.0
20260906015016 32 148 4.8 11.3 0.00 0.00 0.00 57 1011.9
20260906014016 32 152 4.8 11.3 0.00 0.00 0.00 56 1011.7
20260906013015 32 129 4.8 11.3 0.00 0.00 0.00 54 1011.6
20260906012035 32 135 4.8 16.1 0.00 0.00 0.00 53 1011.4
20260906011016 33 104 4.8 11.3 0.00 0.00 0.00 52 1011.3
20260906010016 33 120 4.8 16.1 0.00 0.00 0.00 51 1011.2
20260906005016 35 120 6.4 14.5 0.00 0.00 0.00 45 1011.1
20260906004016 35 102 3.2 11.3 0.00 0.00 0.00 41 1010.8
20260906003036 36 118 3.2 8.0 0.00 0.00 0.00 40 1010.9
20260906002016 36 104 4.8 12.9 0.00 0.00 0.00 39 1010.8
20260906001036 36 107 4.8 9.7 0.00 0.00 0.00 38 1010.7
20260906000017 37 114 3.2 9.7 0.00 0.00 0.00 37 1010.6
20260905235017 37 98 3.2 8.0 0.00 0.00 0.00 36 1010.5
20260905234017 37 86 3.2 9.7 0.00 0.00 0.00 35 1010.5